Location: Abraham Lincoln Continuation High School
(33.9711°N, 117.3662°W)
Time: 03:50:21
(UTC+00:00)

Skynet4D Del rocket - Pass Details

Date: 21 September 2020
Orbit: 763 x 1291 km, 26.9° (Epoch: 25 October)

Event Time Altitude Azimuth Distance (km) Brightness Sun altitude
Exits shadow 11:27:37 39° 162° (SSE) 1,188 4.4 -27.1°
Drops below altitude 10° 11:32:20 10° 112° (ESE) 2,471 6.7 -26.2°
Sets 11:35:09 0° 106° (ESE) 3,484 7.7 -25.7°
